Location: São Paulo
(23.5507°S, 46.6334°W)
Time: 10:37:47
(UTC-03:00)

Transit 4A - Pass Details

Date: 17 February 2026
Orbit: 864 x 977 km, 66.8° (Epoch: 11 March)

Event Time Altitude Azimuth Distance (km) Brightness Sun altitude
Rises 15:17:44 0° 331° (NNW) 3,659 11.4 46.4°
Reaches altitude 10° 15:20:18 10° 328° (NNW) 2,715 10.9 45.8°
Maximum altitude 15:26:38 66° 246° (WSW) 1,053 9.6 44.3°
Drops below altitude 10° 15:32:54 10° 164° (SSE) 2,694 10.3 42.9°
Sets 15:35:28 0° 161° (SSE) 3,629 10.8 42.3°
